Regional Weather Roundup
Issued by NWS

Home | Current Version | Previous Version | Graphics & Text | Print | Product List | Glossary On
Versions: 1 2 3 4 5 6 7 8 9 10 11 12 13 14 15 16 17 18 19 20 21 22 23 24 25 26 27 28 29 30 31 32 33 34 35 36 37 38 39 40 41 42 43 44 45 46 47 48 49 50
550
ASUS43 KTOP 302308
RWRKS

WEATHER ROUNDUP FOR KANSAS
NATIONAL WEATHER SERVICE GOODLAND KS
600 PM CDT THU MAR 30 2017

NOTE:  "FAIR" INDICATES FEW OR NO CLOUDS BELOW 12,000 FEET WITH NO
SIGNIFICANT WEATHER AND/OR OBSTRUCTIONS TO VISIBILITY.

KSZ001>006-013>018-027>032-041>047-310000-
NORTHWEST KANSAS

CITY           SKY/WX    TMP DP  RH WIND       PRES   REMARKS
GOODLAND       SUNNY     59  39  47 E3        29.70F
HAYS             N/A     50  38  63 N12       29.75S
HILL CITY      CLOUDY    46  39  76 N6        29.76F
RUSSELL        CLOUDY    50  39  66 N12       29.74R
$$

KSZ061>065-074>080-084>089-310000-
SOUTHWEST KANSAS

CITY           SKY/WX    TMP DP  RH WIND       PRES   REMARKS
DODGE CITY     SUNNY     59  41  51 VRB5      29.73R
ELKHART          N/A     65  38  37 SE5         N/A
GARDEN CITY    SUNNY     61  38  42 MISG      29.72S
GREAT BEND     CLOUDY    50  41  71 N10       29.75R
LIBERAL        SUNNY     64  39  39 NW5       29.73F
PRATT          CLOUDY    48  39  72 N13       29.75S
$$

KSZ066>073-081>083-090>101-310000-
SOUTHEAST KANSAS

CITY           SKY/WX    TMP DP  RH WIND       PRES   REMARKS
CHANUTE        CLOUDY    47  43  86 NW16      29.71R
COFFEYVILLE    CLOUDY    49  43  80 NW13      29.73R
HUTCHINSON     CLOUDY    48  40  73 N15       29.74R
MEDICINE LODGE   N/A     53  40  61 N12       29.74R
NEWTON         CLOUDY    45  42  89 NW16      29.74R
PARSONS        CLOUDY    48  43  82 NW12      29.73R
WICHITA INTL   CLOUDY    48  42  80 NW15      29.74R
WICHITA JABRA  CLOUDY    47  42  83 NW14      29.74R
WICHITA MCCONL CLOUDY    47  40  77 NW12      29.74R
WINFIELD       CLOUDY    49  42  77 NW12      29.76R
$$

KSZ007>012-019>026-033>040-048>060-102>105-310000-
NORTHEAST KANSAS

CITY           SKY/WX    TMP DP  RH WIND       PRES   REMARKS
CONCORDIA      CLOUDY    45  41  86 N10       29.75R
EMPORIA        CLOUDY    44  43  96 NW16G22   29.71R
LAWRENCE       CLOUDY    47  46  97 W13       29.69R
MANHATTAN      CLOUDY    45  42  89 N7        29.73R
MARYSVILLE     CLOUDY    45  41  87 N13       29.73R
OLATHE IND     LGT RAIN  46  45  96 NW13      29.66R FOG
OLATHE EXE     CLOUDY    46  46 100 NW9       29.66R FOG
SALINA         CLOUDY    48  44  86 N12       29.75R
TOPEKA BILLARD CLOUDY    45  45 100 NW10      29.70R FOG
TOPEKA FORBES  CLOUDY    46  45  96 N10       29.70R FOG
$$




USA.gov is the U.S. government's official web portal to all federal, state and local government web resources and services.